Weather History for EGNR - October, 2012

Change the Weather History Date:

Monday, October 1, 2012

  Actual Average (EGGP) Record (EGGP)
Temperature  
Mean Temperature 56 °F -  
Max Temperature 61 °F 55 °F 78 °F (2011)
Min Temperature 50 °F 45 °F 44 °F (1996)
Degree Days  
Heating Degree Days 10    
Growing Degree Days 6 (Base 50)    
Moisture  
Dew Point 50 °F    
Average Humidity 78    
Maximum Humidity 100    
Minimum Humidity 55    
Precipitation  
Precipitation 0.02 in - - ()
Sea Level Pressure  
Sea Level Pressure 29.76 in    
Wind  
Wind Speed 10 mph ()    
Max Wind Speed 20 mph    
Max Gust Speed -    
Visibility 7.7 miles    
Events Rain    
Averages and records for this station are not official NWS values.
T = Trace of Precipitation, MM = Missing Value Source: Averaged Metar Reports

Daily Weather History Graph

Daily Weather History Graph

Search for Another Location

Airport or City:

Trip Planner

Search our weather history database for the weather conditions in past years. The results will help you decide how hot, cold, wet, or windy it might be!

Date:

Astronomy

Oct. 01, 2012 Rise Set
Actual Time 7:13 AM BST 6:47 PM BST
Civil Twilight 6:39 AM BST 7:22 PM BST
Nautical Twilight 5:59 AM BST 8:02 PM BST
Astronomical Twilight 5:17 AM BST 8:44 PM BST
Moon 6:55 PM BST (10/1) 8:47 AM BST (10/1)
Length of Visible Light 12h 43m
Length of Day
11h 34m
Full, 98% of the Moon is Illuminated
Oct 1
Full
Oct 8
Last Quarter
Oct 15
New
Oct 22
First Quarter
Oct 29
Full

Hourly Weather History & Observations

Time (BST) Temp. Dew Point Humidity Pressure Visibility Wind Dir Wind Speed Gust Speed Precip Events Conditions
12:50 AM 54 °F 48 °F 72% 29.82 in 25 mi SSW 11.5 mph - -  
3:50 AM 51 °F 46 °F 77% 29.80 in 14 mi South 6.9 mph - -   Mostly Cloudy
6:20 AM 53.6 °F 51.8 °F 94% 29.80 in 6.2 mi SSW 10.4 mph - N/A Rain Light Rain
6:50 AM 53 °F 47 °F 75% 29.80 in 12 mi South 8.1 mph - -  
6:50 AM 51.8 °F 51.8 °F 100% 29.80 in 6.2 mi South 8.1 mph - N/A   Partly Cloudy
7:50 AM 53.6 °F 51.8 °F 94% 29.77 in 6.2 mi South 5.8 mph - N/A   Partly Cloudy
8:50 AM 53.6 °F 51.8 °F 94% 29.77 in 6.2 mi South 8.1 mph - N/A   Partly Cloudy
9:20 AM 55.4 °F 51.8 °F 88% 29.77 in 6.2 mi South 5.8 mph - N/A   Partly Cloudy
9:50 AM 56 °F 50 °F 75% 29.78 in 13 mi South 8.1 mph - - Rain Rain
9:50 AM 57.2 °F 53.6 °F 88% 29.77 in 6.2 mi South 9.2 mph - N/A   Scattered Clouds
10:20 AM 57.2 °F 53.6 °F 88% 29.77 in 6.2 mi SSW 11.5 mph - N/A   Scattered Clouds
10:50 AM 55.4 °F 53.6 °F 94% 29.77 in 5.6 mi SW 12.7 mph - N/A Rain Light Rain
11:20 AM 55.4 °F 55.4 °F 100% 29.77 in 6.2 mi SW 8.1 mph - N/A   Scattered Clouds
12:20 PM 59.0 °F 51.8 °F 77% 29.74 in 6.2 mi SW 13.8 mph - N/A   Partly Cloudy
12:50 PM 59 °F 52 °F 71% 29.75 in 25 mi South 8.1 mph - -   Mostly Cloudy
12:50 PM 59.0 °F 55.4 °F 88% 29.74 in 6.2 mi SSW 10.4 mph - N/A   Scattered Clouds
1:20 PM 60.8 °F 53.6 °F 77% 29.74 in 6.2 mi WSW 11.5 mph - N/A   Scattered Clouds
1:50 PM 59.0 °F 50.0 °F 72% 29.74 in 6.2 mi SW 15.0 mph - N/A   Scattered Clouds
2:20 PM 60.8 °F 50.0 °F 68% 29.74 in 6.2 mi WSW 15.0 mph - N/A   Scattered Clouds
2:50 PM 60.8 °F 50.0 °F 68% 29.74 in 6.2 mi WSW 18.4 mph - N/A   Scattered Clouds
3:20 PM 59.0 °F 50.0 °F 72% 29.74 in 6.2 mi WSW 19.6 mph - N/A   Scattered Clouds
3:50 PM 60 °F 48 °F 55% 29.73 in 22 mi SW 16.1 mph - -   Partly Cloudy
3:50 PM 59.0 °F 50.0 °F 72% 29.74 in 6.2 mi WSW 16.1 mph - N/A   Scattered Clouds
4:20 PM 59.0 °F 50.0 °F 72% 29.74 in 6.2 mi WSW 18.4 mph - N/A   Scattered Clouds
4:50 PM 60.8 °F 50.0 °F 68% 29.71 in 6.2 mi SW 16.1 mph - N/A   Scattered Clouds
5:50 PM 57.2 °F 48.2 °F 72% 29.71 in 6.2 mi SW 12.7 mph - N/A   Scattered Clouds
6:20 PM 57.2 °F 48.2 °F 72% 29.74 in 6.2 mi WSW 12.7 mph - N/A   Scattered Clouds
6:50 PM 56 °F 46 °F 60% 29.74 in 19 mi SSW 10.4 mph - -   Scattered Clouds
6:50 PM 57.2 °F 48.2 °F 72% 29.74 in 6.2 mi SW 11.5 mph - N/A   Mostly Cloudy
7:20 PM 53.6 °F 48.2 °F 82% 29.71 in 6.2 mi SSW 8.1 mph - N/A   Scattered Clouds
7:50 PM 55.4 °F 48.2 °F 77% 29.74 in 6.2 mi SSW 10.4 mph - N/A   Scattered Clouds
8:20 PM 55.4 °F 48.2 °F 77% 29.74 in 6.2 mi SSW 13.8 mph - N/A   Scattered Clouds
9:50 PM 53 °F 46 °F 70% 29.76 in 18 mi South 5.8 mph - - Rain Rain